TimeEST,TemperatureF,Dew PointF,Humidity,Sea Level PressureIn,VisibilityMPH,Wind Direction,Wind SpeedMPH,Gust SpeedMPH,PrecipitationIn,Events,Conditions,WindDirDegrees,DateUTC
12:27 AM,37.4,21.2,52,30.08,10.0,NE,13.8,-,N/A,,Overcast,50,2013-02-26 05:27:00
12:53 AM,37.0,21.9,54,30.05,10.0,NE,9.2,-,N/A,,Overcast,50,2013-02-26 05:53:00
1:53 AM,34.0,25.0,70,30.04,8.0,NE,10.4,-,0.00,Rain,Light Rain,50,2013-02-26 06:53:00
2:53 AM,32.0,28.9,88,30.00,3.0,NE,8.1,-,0.01,,Overcast,40,2013-02-26 07:53:00
3:10 AM,32.0,28.4,87,30.00,3.0,NE,9.2,-,0.01,Rain,Light Freezing Rain,40,2013-02-26 08:10:00
3:21 AM,32.0,28.4,87,30.00,2.5,NNE,6.9,-,0.01,Rain,Light Freezing Rain,30,2013-02-26 08:21:00
3:31 AM,32.0,28.4,87,30.01,2.5,NE,8.1,-,0.01,Rain,Light Freezing Rain,40,2013-02-26 08:31:00
3:53 AM,32.0,30.0,92,29.97,2.0,NNE,9.2,-,0.03,Rain,Light Freezing Rain,30,2013-02-26 08:53:00
4:31 AM,32.0,30.2,93,29.99,2.5,NNE,9.2,-,0.02,,Overcast,30,2013-02-26 09:31:00
4:53 AM,32.0,30.0,92,29.96,3.0,NE,8.1,18.4,0.04,,Overcast,40,2013-02-26 09:53:00
5:53 AM,32.0,28.9,88,29.96,4.0,NNE,11.5,-,0.16,,Overcast,30,2013-02-26 10:53:00
6:02 AM,32.0,30.2,93,29.96,3.0,NNE,10.4,18.4,0.04,Rain,Light Freezing Rain,30,2013-02-26 11:02:00
6:14 AM,32.0,30.2,93,29.95,3.0,NE,8.1,-,0.08,Rain,Light Freezing Rain,40,2013-02-26 11:14:00
6:21 AM,32.0,30.2,93,29.95,3.0,NE,8.1,-,0.10,Rain,Light Freezing Rain,40,2013-02-26 11:21:00
6:53 AM,32.0,30.0,92,29.92,4.0,NE,8.1,-,0.19,Rain,Light Freezing Rain,40,2013-02-26 11:53:00
7:53 AM,33.1,30.0,89,29.89,4.0,NE,6.9,-,0.14,,Overcast,50,2013-02-26 12:53:00
8:43 AM,33.8,30.2,87,29.87,2.0,NE,13.8,-,0.12,Rain,Heavy Rain,50,2013-02-26 13:43:00
8:53 AM,33.1,30.9,92,29.86,3.0,NE,8.1,-,0.14,Rain,Rain,40,2013-02-26 13:53:00
9:17 AM,33.8,30.2,87,29.85,1.5,NE,9.2,-,0.09,Rain,Heavy Rain,50,2013-02-26 14:17:00
9:53 AM,33.1,32.0,96,29.83,2.5,NNE,8.1,-,0.25,Rain,Rain,30,2013-02-26 14:53:00
10:07 AM,33.8,32.0,93,29.83,1.5,NE,6.9,-,0.05,Rain,Heavy Rain,50,2013-02-26 15:07:00
10:16 AM,33.8,32.0,93,29.82,2.5,NNE,5.8,-,0.06,Rain,Rain,20,2013-02-26 15:16:00
10:27 AM,33.8,32.0,93,29.80,3.0,NE,6.9,-,0.08,Rain,Light Rain,40,2013-02-26 15:27:00
10:35 AM,33.8,32.0,93,29.80,2.5,NE,6.9,-,0.09,Rain,Light Rain,40,2013-02-26 15:35:00
10:44 AM,33.8,32.0,93,29.81,4.0,NE,5.8,-,0.09,Rain,Light Rain,50,2013-02-26 15:44:00
10:53 AM,34.0,32.0,92,29.78,3.0,NE,5.8,-,0.11,Rain,Rain,40,2013-02-26 15:53:00
11:03 AM,33.8,32.0,93,29.80,2.5,NE,5.8,-,0.02,Rain,Rain,40,2013-02-26 16:03:00
11:11 AM,33.8,33.8,100,29.78,3.0,NNE,6.9,-,0.03,Rain,Light Rain,30,2013-02-26 16:11:00
11:21 AM,33.8,32.0,93,29.78,2.5,NNE,5.8,-,0.04,Rain,Light Rain,30,2013-02-26 16:21:00
11:28 AM,35.6,33.8,93,29.77,3.0,NNE,6.9,-,0.05,Rain,Light Rain,30,2013-02-26 16:28:00
11:53 AM,35.1,33.1,92,29.73,2.5,NE,6.9,19.6,0.07,Rain,Light Rain,50,2013-02-26 16:53:00
12:02 PM,35.6,33.8,93,29.72,3.0,NNE,10.4,-,0.01,Rain,Light Rain,30,2013-02-26 17:02:00
12:21 PM,35.6,33.8,93,29.70,2.5,NE,10.4,-,0.02,Rain,Light Rain,40,2013-02-26 17:21:00
12:53 PM,35.1,33.1,92,29.67,1.8,NE,9.2,-,0.05,Rain,Heavy Rain,40,2013-02-26 17:53:00
1:00 PM,35.6,33.8,93,29.68,2.5,NE,9.2,-,0.01,Rain,Light Rain,40,2013-02-26 18:00:00
1:18 PM,35.6,33.8,93,29.67,6.0,NNE,9.2,-,0.04,Rain,Light Rain,20,2013-02-26 18:18:00
1:42 PM,35.6,33.8,93,29.65,2.5,North,6.9,-,0.07,Rain,Light Rain,10,2013-02-26 18:42:00
1:53 PM,36.0,35.1,97,29.63,3.0,NNE,6.9,-,0.07,Rain,Light Rain,30,2013-02-26 18:53:00
2:09 PM,35.6,35.6,100,29.67,1.8,Variable,6.9,-,0.04,Rain,Light Rain,0,2013-02-26 19:09:00
2:22 PM,37.4,35.6,93,29.65,3.0,North,8.1,-,0.06,Rain,Light Rain,360,2013-02-26 19:22:00
2:53 PM,37.0,36.0,96,29.62,2.5,NNW,4.6,-,0.07,Rain,Light Rain,340,2013-02-26 19:53:00
2:56 PM,37.4,35.6,93,29.62,3.0,NW,3.5,-,0.00,Rain,Light Rain,310,2013-02-26 19:56:00
3:03 PM,37.4,35.6,93,29.62,2.5,NNW,5.8,-,0.00,Rain,Light Rain,330,2013-02-26 20:03:00
3:15 PM,37.4,35.6,93,29.62,4.0,NNW,5.8,-,0.00,Rain,Light Rain,340,2013-02-26 20:15:00
3:37 PM,37.4,35.6,93,29.61,2.5,NNW,3.5,-,0.01,Rain,Light Rain,330,2013-02-26 20:37:00
3:50 PM,37.4,35.6,93,29.61,3.0,NNW,4.6,-,0.01,,Overcast,340,2013-02-26 20:50:00
3:53 PM,37.0,36.0,96,29.60,4.0,NNW,4.6,-,0.01,,Overcast,330,2013-02-26 20:53:00
4:53 PM,37.0,36.0,96,29.60,5.0,WNW,6.9,-,N/A,,Overcast,300,2013-02-26 21:53:00
5:53 PM,37.0,36.0,96,29.57,6.0,Calm,Calm,-,N/A,,Overcast,0,2013-02-26 22:53:00
6:08 PM,37.4,35.6,93,29.59,10.0,Calm,Calm,-,N/A,,Overcast,0,2013-02-26 23:08:00
6:53 PM,37.9,36.0,93,29.61,9.0,West,3.5,-,N/A,,Overcast,280,2013-02-26 23:53:00
7:53 PM,37.9,36.0,93,29.62,10.0,Calm,Calm,-,N/A,,Overcast,0,2013-02-27 00:53:00
8:53 PM,37.0,36.0,96,29.62,5.0,SW,3.5,-,N/A,,Overcast,230,2013-02-27 01:53:00
9:53 PM,37.0,36.0,96,29.62,3.0,Calm,Calm,-,N/A,,Overcast,0,2013-02-27 02:53:00
10:28 PM,37.4,35.6,93,29.63,3.0,Calm,Calm,-,N/A,,Overcast,0,2013-02-27 03:28:00
10:38 PM,37.4,35.6,93,29.63,1.8,Calm,Calm,-,N/A,,Overcast,0,2013-02-27 03:38:00
10:53 PM,37.0,36.0,96,29.63,1.0,SSW,5.8,-,N/A,,Mist,210,2013-02-27 03:53:00
11:11 PM,37.4,35.6,93,29.64,0.8,SSW,3.5,-,N/A,,Mist,200,2013-02-27 04:11:00
11:53 PM,37.0,36.0,96,29.62,0.5,South,4.6,-,N/A,Fog,Fog,180,2013-02-27 04:53:00